Regional Weather Roundup
Issued by NWS

Home | Current Version | Previous Version | Text Only | Print | Product List | Glossary On
Versions: 1 2 3 4 5 6 7 8 9 10 11 12 13 14 15 16 17 18 19 20 21 22 23 24 25 26 27 28 29 30 31 32 33 34 35 36 37 38 39 40 41 42 43 44 45 46 47 48 49 50
000
ASUS44 KJAN 242310
RWRMS

MISSISSIPPI HOURLY WEATHER ROUNDUP
NATIONAL WEATHER SERVICE JACKSON MS
600 PM CDT SUN MAY 24 2015

NOTE: "FAIR: INDICATES FEW OR NO CLOUDS BELOW 12,000 FEET WITH NO
SIGNIFICANT WEATHER AND/OR OBSTRUCTIONS TO VISIBILITY.

MSZ001>002-007>008-010>013-018>021-025>028-034>036-250000-
NORTHWEST MISSISSIPPI

CITY           SKY/WX    TMP DP  RH WIND       PRES   REMARKS
CLARKSDALE       N/A     73  73 100 CALM      29.97R
CLEVELAND      LGT RAIN  78  72  81 S10G16    29.96R
GREENWOOD      TSTM      71  65  81 SW14G37   29.99R
GREENVILLE     LGT RAIN  72  69  90 S13       29.96R
OLIVE BRANCH   PTSUNNY   75  75 100 SE12      29.98
OXFORD         FAIR      72  68  88 SE9       30.02S
TUNICA         CLOUDY    70  66  88 SE9       29.98F
$$

MSZ003>006-009-014>017-022>024-029>033-037>039-250000-
NORTHEAST MISSISSIPPI

CITY           SKY/WX    TMP DP  RH WIND       PRES   REMARKS
COLUMBUS AFB   CLOUDY    73  73 100 E9        30.06S
CORINTH        CLOUDY    77  68  73 S14G25    30.04R THUNDER
GOLDN TRIANGLE PTSUNNY   73  64  73 SE12      30.05S
STARKVILLE     FAIR      73  68  83 SE10      30.05S
TUPELO         CLOUDY    71  67  87 SE13      30.05F
$$

MSZ040-058-250000-
CENTRAL MISSISSIPPI

CITY           SKY/WX    TMP DP  RH WIND       PRES   REMARKS
JACKSON INTL   PTSUNNY   80  72  76 SE9       29.99F
JACKSON HAWKNS CLOUDY    80  71  74 S17       30.00S
MERIDIAN KEY   CLOUDY    76  70  82 SE3       30.04F
MERIDIAN NAS   CLOUDY    77  72  84 SE5       30.06F
RAYMOND        FAIR      82  77  83 SE12      29.98R HX  91
VICKSBURG      CLOUDY    77  70  79 S8        29.96F
$$

MSZ059>079-250000-
SOUTH MISSISSIPPI

CITY           SKY/WX    TMP DP  RH WIND       PRES   REMARKS
BROOKHAVEN     FAIR      79  73  83 SE5       30.01S
HATTIESBURG    PTSUNNY   81  73  76 SE8       30.03F
MCCOMB         LGT RAIN  78  73  84 E7        29.98F
NATCHEZ        CLOUDY    79  70  73 SE10      29.97S
PINE BELT      PTSUNNY   81  72  74 SE12G18   30.04F
$$

MSZ080>082-250000-
COASTAL MISSISSIPPI

CITY           SKY/WX    TMP DP  RH WIND       PRES   REMARKS
BAY ST LOUIS   PTSUNNY   84  72  65 MISG      30.04
BILOXI         PTSUNNY   82  77  84 S20       30.04R HX  90
PASCAGOULA     LGT RAIN  81  75  82 SE18G32   30.05S
GULFPORT       MOSUNNY   83  75  77 SE22G28   30.03R HX  90
$$



USA.gov is the U.S. government's official web portal to all federal, state and local government web resources and services.